Station BSLM2 - Jug Bay, Chesapeake Bay Reserve, MD Image indicating link to RSS feed of recent meteorological observations for station BSLM2


Conditions at BSLM2 as of
(9:30 am EDT)
1330 GMT on 07/22/2024:
     

Click on the graph icon in the table below to see a time series plot of the last five days of that observation.

5-day plot - Wind Direction Wind Direction (WDIR): SE ( 140 deg true )
5-day plot - Wind Speed Wind Speed (WSPD): 1.9 kts
5-day plot - Atmospheric Pressure Atmospheric Pressure (PRES):30.03 in
5-day plot - Air Temperature Air Temperature (ATMP): 79.7 °F
5-day plot - Dew Point Dew Point (DEWP): 75.2 °F
5-day plot - Heat Index Heat Index (HEAT): 84.4 °F
5-day plot -  Wind Speed, Wind Gust and Atmospheric Pressure Combined plot of Wind Speed, Gust, and Air Pressure
Previous observations
TIME
(EDT)
5-day plot - Wind Direction
WDIR
 
5-day plot - Wind Speed
WSPD
kts
5-day plot - Wind Gust
GST
kts
5-day plot - Wave Height
WVHT
ft
5-day plot - Dominant Wave Period
DPD
sec
5-day plot - Average Wave Period
APD
sec
5-day plot - Mean Wave Direction
MWD
 
5-day plot - Atmospheric Pressure
PRES
in
5-day plot - Pressure Tendency
PTDY
in
5-day plot - Air Temperature
ATMP
°F
5-day plot - Water Temperature
WTMP
°F
5-day plot - Dew Point
DEWP
°F
5-day plot - Salinity
SAL
psu
5-day plot - Visibility
VIS
nmi
5-day plot - Tide (above MLLW)
TIDE
ft
2024-07-22 09:15 amSSE 2.9-----30.03- 79.0- 75.2---
2024-07-22 09:00 amSSE 4.1-----30.03+0.00 78.3- 75.2---
2024-07-22 08:45 amSSE 5.1-----30.03- 78.3- 75.2---
2024-07-22 08:30 amSSE 4.1-----30.03- 78.1- 75.4---
2024-07-22 08:15 amSSE 4.1-----30.03- 77.2- 75.4---
2024-07-22 08:00 am S 1.9-----30.03+0.00 76.5- 74.7---
2024-07-22 07:45 am- 0.0-----30.03- 76.1- 74.3---
2024-07-22 07:30 am- 0.0-----30.03- 75.9- 74.5---
2024-07-22 07:15 am SE 1.9-----30.03- 75.9- 74.5---
2024-07-22 07:00 amSSE 1.9-----30.03+0.00 75.6- 74.3---
2024-07-22 06:45 amESE 1.9-----30.03- 75.0- 73.8---
2024-07-22 06:30 amESE 1.9-----30.03- 74.7- 73.4---
2024-07-22 06:15 amESE 1.9-----30.03- 74.7- 73.4---
2024-07-22 06:00 amESE 2.9-----30.03+0.00 74.7- 73.4---
2024-07-22 05:45 amESE 2.9-----30.03- 74.7- 73.4---
2024-07-22 05:30 amESE 2.9-----30.03- 74.8- 73.6---
2024-07-22 05:15 am SE 2.9-----30.03- 74.8- 73.9---
2024-07-22 05:00 amESE 1.9-----30.03-0.03 74.3- 73.4---
2024-07-22 04:45 amESE 1.9-----30.03- 74.1- 73.2---
2024-07-22 04:30 amESE 1.0-----30.00- 74.3- 73.4---
2024-07-22 04:15 amESE 1.9-----30.00- 74.5- 73.6---
2024-07-22 04:00 amESE 1.9-----30.03-0.03 74.8- 73.9---
2024-07-22 03:45 amSSE 1.9-----30.03- 74.7- 73.8---
2024-07-22 03:30 am SE 1.0-----30.03- 74.3- 73.4---
2024-07-22 03:15 am SE 1.9-----30.03- 74.5- 73.6---
2024-07-22 03:00 am SE 1.9-----30.03+0.00 74.3- 73.0---
2024-07-22 02:45 am SE 1.0-----30.03- 74.3- 73.0---
2024-07-22 02:30 am- 0.0-----30.03- 74.5- 73.0---
2024-07-22 02:15 am S 1.0-----30.03- 75.0- 73.6---
2024-07-22 02:00 am S 1.9-----30.06+0.00 75.2- 73.4---
2024-07-22 01:45 amSSE 1.9-----30.06- 75.6- 73.4---
2024-07-22 01:30 am S 2.9-----30.06- 75.6- 73.4---
2024-07-22 01:15 am S 4.1-----30.06- 75.9- 73.4---
2024-07-22 01:00 am S 4.1-----30.06+0.03 75.9- 73.4---
2024-07-22 12:45 am S 2.9-----30.03- 76.1- 73.6---
2024-07-22 12:30 am S 2.9-----30.03- 76.5- 73.8---
2024-07-22 12:15 am S 2.9-----30.03- 76.6- 74.1---
2024-07-22 12:00 am S 2.9-----30.03+0.03 76.6- 73.9---
2024-07-21 11:45 pm S 2.9-----30.03- 76.6- 74.5---
2024-07-21 11:30 pm S 1.9-----30.03- 76.1- 74.7---
2024-07-21 11:15 pm SE 1.0-----30.03- 75.6- 74.3---
2024-07-21 11:00 pm- 0.0-----30.06+0.06 75.7- 74.5---
2024-07-21 10:45 pm- 0.0-----30.03- 75.7- 74.5---
2024-07-21 10:30 pm- 0.0-----30.06- 75.9- 74.5---
2024-07-21 10:15 pm- 0.0-----30.03- 76.5- 75.0---
2024-07-21 10:00 pm- 0.0-----30.03+0.03 77.0- 75.2---
2024-07-21 09:45 pm- 0.0-----30.03- 77.4- 75.2---
2024-07-21 09:30 pm- 0.0-----30.03- 77.9- 75.2---
2024-07-21 09:15 pm- 0.0-----30.00- 78.3- 74.5---
2024-07-21 09:00 pmSSW 1.9-----30.00+0.00 79.2- 74.7---
2024-07-21 08:45 pmSSE 2.9-----30.00- 80.6- 75.7---
2024-07-21 08:30 pm SE 2.9-----30.00- 80.8- 75.2---
2024-07-21 08:15 pm S 2.9-----30.00- 81.0- 75.0---
2024-07-21 08:00 pmSSE 5.1-----30.00+0.00 81.9- 74.8---
2024-07-21 07:45 pmESE 5.1-----30.00- 82.2- 74.1---
2024-07-21 07:30 pmESE 5.1-----30.00- 82.8- 73.4---
2024-07-21 07:15 pmESE 4.1-----30.00- 83.7- 73.6---
2024-07-21 07:00 pmESE 5.1-----30.00+0.00 84.4- 73.4---
2024-07-21 06:45 pm SE 5.1-----30.00- 84.2- 74.5---
2024-07-21 06:30 pm SE 7.0-----30.00- 84.9- 74.3---
2024-07-21 06:15 pm SE 7.0-----29.97- 86.9- 74.5---
2024-07-21 06:00 pm SE 6.0-----30.00+0.00 88.5- 75.2---
2024-07-21 05:45 pmSSE 5.1-----30.00- 87.6- 74.7---
2024-07-21 05:30 pmSSE 4.1-----30.00- 87.6- 73.4---
2024-07-21 05:15 pmSSE 4.1-----30.00- 87.1- 73.4---
2024-07-21 05:00 pm SE 5.1-----30.00-0.03 86.9- 74.5---
2024-07-21 04:45 pmSSE 5.1-----30.00- 86.0- 73.6---
2024-07-21 04:30 pm S 5.1-----30.00- 84.4- 72.5---
2024-07-21 04:15 pm S 6.0-----30.00- 85.1- 72.3---
2024-07-21 04:00 pm S 7.0-----30.00-0.03 87.1- 72.0---
2024-07-21 03:45 pmSSE 6.0-----30.00- 88.5- 72.9---
2024-07-21 03:30 pmSSE 6.0-----30.00- 87.1- 73.4---
2024-07-21 03:15 pmSSE 5.1-----30.00- 87.8- 73.0---
2024-07-21 03:00 pm SE 6.0-----30.00-0.03 87.6- 73.4---
2024-07-21 02:45 pmSSE 6.0-----30.03- 89.4- 73.6---
2024-07-21 02:30 pmSSE 6.0-----30.03- 88.5- 73.8---
2024-07-21 02:15 pmSSE 5.1-----30.03- 88.5- 71.8---
2024-07-21 02:00 pmSSE 4.1-----30.03+0.00 88.2- 71.4---
2024-07-21 01:45 pm S 4.1-----30.03- 88.7- 70.9---
2024-07-21 01:30 pmSSE 2.9-----30.03- 87.4- 70.7---
2024-07-21 01:15 pmSSE 4.1-----30.03- 87.3- 71.6---
2024-07-21 01:00 pm S 2.9-----30.03+0.00 86.0- 70.9---
2024-07-21 12:45 pm S 2.9-----30.03- 85.5- 70.0---
2024-07-21 12:30 pmSSE 2.9-----30.03- 85.6- 71.4---
2024-07-21 12:15 pmSSE 2.9-----30.03- 86.0- 71.4---
2024-07-21 12:00 pm SE 1.9-----30.03+0.00 86.0- 71.4---
2024-07-21 11:45 am SE 1.9-----30.03- 84.9- 70.9---
2024-07-21 11:30 amSSE 2.9-----30.03- 84.2- 71.4---
2024-07-21 11:15 amSSE 2.9-----30.03- 83.7- 72.3---
2024-07-21 11:00 amSSE 1.9-----30.03-0.03 83.5- 71.6---
2024-07-21 10:45 am SE 1.9-----30.03- 82.6- 71.6---
2024-07-21 10:30 amSSE 1.9-----30.03- 81.5- 71.8---
2024-07-21 10:15 am SE 1.9-----30.03- 81.1- 71.4---
2024-07-21 10:00 am SE 1.9-----30.03+0.00 80.2- 71.1---